FW4213 Weather Reports


time (UTC)temp
C
wind
direction
speed
KPH
gust
KPH
rain 1hr
cm
rain 24hr
cm
rain mn
cm
humidity
%
barometer
mb
20260510220034 22 269 4.8 16.1 0.00 0.00 0.00 45 1019.3
20260510214530 22 242 8.0 19.3 0.00 0.00 0.00 45 1019.3
20260510213036 21 243 8.0 22.5 0.00 0.00 0.00 46 1019.4
20260510210033 20 239 8.0 19.3 0.00 0.00 0.00 52 1018.9
20260510201611 23 258 6.4 16.1 0.00 0.00 0.00 47 1018.4
20260510200031 23 256 6.4 16.1 0.00 0.00 0.00 50 1018.4
20260510194532 21 255 4.8 16.1 0.00 0.00 0.00 56 1018.4
20260510193110 19 302 8.0 22.5 0.00 0.00 0.00 62 1018.4
20260510191530 17 320 9.7 24.1 0.00 0.00 0.00 67 1018.5
20260510190031 17 313 9.7 25.7 0.00 0.00 0.00 70 1018.6
20260510183037 17 303 6.4 24.1 0.00 0.00 0.00 69 1018.7
20260510181532 17 279 4.8 16.1 0.00 0.00 0.00 71 1018.7
20260510180034 16 285 4.8 17.7 0.00 0.00 0.00 72 1018.6
20260510173039 16 284 3.2 11.3 0.00 0.00 0.00 73 1018.6
20260510170029 16 296 3.2 16.1 0.00 0.00 0.00 73 1018.6
20260510164609 16 301 1.6 11.3 0.00 0.00 0.00 74 1018.8
20260510163036 14 260 1.6 9.7 0.00 0.00 0.00 79 1018.8
20260510154532 13 276 1.6 8.0 0.00 0.00 0.00 81 1018.5
20260510151610 13 316 0.0 4.8 0.00 0.00 0.00 81 1018.6
20260510144652 12 121 0.0 6.4 0.00 0.00 0.00 80 1018.3
20260510143037 11 154 1.6 6.4 0.00 0.00 0.00 82 1018.2
20260510141532 10 166 0.0 3.2 0.00 0.00 0.00 82 1018.2
20260510140031 9 138 3.2 11.3 0.00 0.00 0.00 83 1018.3
20260510134532 8 139 1.6 6.4 0.00 0.00 0.00 84 1018.3
20260510133032 8 128 3.2 6.4 0.00 0.00 0.00 81 1018.1
20260510130032 8 136 4.8 11.3 0.00 0.00 0.00 81 1018.1
20260510124531 8 122 1.6 6.4 0.00 0.00 0.00 79 1018.2
20260510123112 7 138 6.4 11.3 0.00 0.00 0.00 79 1018.3
20260510121530 7 152 4.8 8.0 0.00 0.00 0.00 81 1018.2
20260510120032 8 136 3.2 6.4 0.00 0.00 0.00 78 1018.1
20260510113032 8 149 4.8 8.0 0.00 0.00 0.00 73 1017.9
20260510111535 8 153 4.8 8.0 0.00 0.00 0.00 72 1017.8
20260510110152 9 145 6.4 9.7 0.00 0.00 0.00 71 1017.8
20260510104533 9 150 4.8 11.3 0.00 0.00 0.00 70 1018.0
20260510103108 10 143 6.4 14.5 0.00 0.00 0.00 70 1018.0
20260510101534 9 143 4.8 11.3 0.00 0.00 0.00 70 1017.9
20260510100034 10 139 6.4 11.3 0.00 0.00 0.00 68 1017.8
20260510094532 10 143 0.0 6.4 0.00 0.00 0.00 66 1017.8
20260510090035 11 139 8.0 14.5 0.00 0.00 0.00 60 1017.9
20260510084643 12 145 6.4 11.3 0.00 0.00 0.00 59 1018.1
20260510081530 12 150 8.0 14.5 0.00 0.00 0.00 56 1018.2
20260510080033 12 145 8.0 14.5 0.00 0.00 0.00 55 1018.2
20260510074538 13 145 8.0 16.1 0.00 0.00 0.00 55 1018.3
20260510073031 13 143 8.0 14.5 0.00 0.00 0.00 54 1018.3
20260510071532 13 145 8.0 14.5 0.00 0.00 0.00 53 1018.3
20260510070034 13 147 9.7 14.5 0.00 0.00 0.00 53 1018.2
20260510064533 13 146 8.0 14.5 0.00 0.00 0.00 53 1018.1
20260510063037 14 146 6.4 11.3 0.00 0.00 0.00 51 1018.0
20260510061610 15 152 6.4 12.9 0.00 0.00 0.00 50 1017.9
20260510060034 15 146 8.0 14.5 0.00 0.00 0.00 50 1017.8
20260510051534 14 131 4.8 12.9 0.00 0.00 0.00 56 1017.6
20260510050031 15 120 1.6 9.7 0.00 0.00 0.00 55 1017.5
20260510043109 16 124 3.2 9.7 0.00 0.00 0.00 51 1017.4
20260510041531 17 141 4.8 11.3 0.00 0.00 0.00 50 1017.1
20260510040032 17 144 4.8 9.7 0.00 0.00 0.00 49 1016.9
20260510034532 18 129 4.8 11.3 0.00 0.00 0.00 48 1016.7
20260510031531 20 148 8.0 16.1 0.00 0.00 0.00 48 1016.6
20260510030029 19 145 8.0 14.5 0.00 0.00 0.00 50 1016.6
20260510021532 23 101 1.6 4.8 0.00 0.00 0.00 53 1016.5
20260510013108 25 337 0.0 1.6 0.00 0.00 0.00 47 1016.7
20260510010056 26 337 0.0 3.2 0.00 0.00 0.00 33 1016.9
20260510001610 26 9 1.6 9.7 0.00 0.00 0.00 29 1017.3
20260509234529 27 355 3.2 9.7 0.00 0.00 0.00 28 1017.5
20260509233031 27 4 4.8 11.3 0.00 0.00 0.00 27 1017.7
20260509231643 26 348 4.8 11.3 0.00 0.00 0.00 27 1017.9
20260509230029 26 334 4.8 11.3 0.00 0.00 0.00 29 1018.3
20260509223031 26 18 1.6 8.0 0.00 0.00 0.00 31 1018.8
20260509221532 26 344 4.8 9.7 0.00 0.00 0.00 31 1019.0